Showing default

CUBEL, 47448

Orbit data source: Space-Track

CUBEL, 47448 is a payload satellite owned by DLR (DE) in SSO that was launched on Sun, 24 Jan 2021 UTC via an FALCON 9 launch vehicle from the Air Force Eastern Test Range (AFETR). Payloads include a variety of satellites, spacecraft, and rockets equipped with specific instruments for various scientific and technological missions. These include communications satellites like Starlink; space stations such as the ISS; scientific satellites like the Hubble; Earth observation satellites from companies like Planet Labs, Umbra, and HawkEye 360; GPS; miniature CubeSats for education and research; and military/defense satellites.

Loading next visibility...
CUBEL details
Identifier
47448, 2021-006AM
Orbit
SSO
Last TLE update1 day ago
Origin
Flag of DEDLR (DE / GER)
ManufacturerDLR2/GOMSP
MissionOperational Civil Technology
Bus & MotorCUBESAT 3U, Unknown motor
Mass4 kg wet, 4 kg dry
Launch date (UTC)
2021-01-24 (4 years ago)
Launch vehicle
FALCON 9
Launch site
Air Force Eastern Test Range (AFETR)
Object type
Payload
Rocket body
Debris
Shape & HBRBox, Unknown HBR
Radar Cross Section0.035 m², Small (<0.1 m²)

Expand to show TLE details & history

TLE from 1 day ago
0 CUBEL
1 47448U 21006AM  24325.09253772  .00010013  00000-0  39224-3 0  9995
2 47448  97.3209  13.0750 0010996  72.4053 287.8386 15.25928279211759
Epoch: 2024-11-20T02:13Z
Definitive object data (Epoch: 2024-11-20T02:13:15.259Z)
Latitude0.00003°
Longitude-79.83217°
Altitude488.794 km
Speed7.622 km/s
True Right ascension00h 52m 17s
True Declination0° 00' 00"
Sunlit
Object was in full shadow at TLE epoch
Visualization TLE readout
Latitude54.19517°
Longitude111.6764°
Altitude492.84 km
Speed7.626 km/s
Apparent Right ascension16h 48m 25s
Apparent Declination12° 35' 50"
Sunlit
Object is in daylight
Visualization observer readout
Local Sidereal Time07:17:45
Azimuth41.66° NE
Elevation-27.079°
Doppler factor1
Orbital elements
Apogee altitude492.5 km
Perigee altitude477.407 km
Semi-major axis6,863.091 km
Eccentricity0.0010996
Inclination97.3209°
RAAN13.075°
Arg. of periapsis72.4053°
True anomaly287.7186°
Mean anomaly287.8386°
Eccentric anomaly287.77861°
Mean motion3.81736 °/min
BSTAR0.00039224
Orbital period94.31 mins
Loading maneuver chart data...

CUBEL Visibility forecast

Observer location: undefined°, undefined

Span
Click to sort rows by Start time (UTC) header in descending order
Start Az.
Max El. time (UTC)
Max El. Az.
Max El.
End time (UTC)
End Az.
6 mins2024-11-21 16:32:35.484Z0.65° NNE2024-11-21 16:35:35.484Z304.52° NW37.269°2024-11-21 16:38:35.484Z212.248° SW
5 mins2024-11-22 03:09:35.484Z136.455° SSE2024-11-22 03:11:35.484Z55.39° ENE36.052°2024-11-22 03:14:35.484Z0.185° NNE
|